Last 24 Hours

Red Mountain

10 Minute Data | America/Los_Angeles
as of 9/4/26 12:07 AM PDT
Date & Time Temp (°F) Dew Pt (°F) RH (%) Wind Spd (mph) Wind Dir (°) Wind Gust (mph) Wind Gst Dir (°) Daily Max Temp (°F) Daily Min Temp (°F)
9/4/26 - 0000 60.2 43.8 55 3.9 NW | 326 6.0 WNW | 293 72.9 59.4
9/3/26 - 2350 60.6 42.7 52 5.5 WNW | 299 7.0 WNW | 294 72.9 59.4
9/3/26 - 2340 60.9 43.2 52 6.3 WNW | 290 8.1 W | 281 72.9 59.4
9/3/26 - 2330 61.2 43.0 51 6.8 WNW | 290 8.0 WNW | 283 72.9 59.4
9/3/26 - 2320 60.7 43.6 53 5.6 WNW | 294 6.4 WNW | 289 72.9 59.4
9/3/26 - 2310 60.1 45.8 59 4.5 NW | 318 5.6 NW | 310 72.9 59.4
9/3/26 - 2300 60.2 45.6 58 4.6 NW | 316 6.1 NW | 304 72.9 59.4
9/3/26 - 2250 60.5 45.1 57 5.3 WNW | 302 6.1 WNW | 298 72.9 59.4
9/3/26 - 2240 60.3 45.7 58 5.1 WNW | 302 6.1 WNW | 288 72.9 59.4
9/3/26 - 2230 60.4 45.5 58 5.0 WNW | 294 6.4 WNW | 289 72.9 59.4
9/3/26 - 2220 60.7 45.2 57 5.0 WNW | 294 6.5 W | 277 72.9 59.4
9/3/26 - 2210 60.8 44.8 56 6.1 WNW | 295 7.8 WNW | 292 72.9 59.4
9/3/26 - 2200 60.5 44.6 56 4.4 WNW | 300 6.1 WNW | 293 72.9 59.4
9/3/26 - 2150 60.8 44.0 54 4.1 NW | 306 5.6 WNW | 295 72.9 59.4
9/3/26 - 2140 60.6 43.9 54 4.9 NW | 314 6.9 NW | 310 72.9 59.4
9/3/26 - 2130 60.3 44.4 56 6.0 NW | 324 7.2 NW | 324 72.9 59.4
9/3/26 - 2120 60.0 45.4 58 5.7 NNW | 335 8.1 NW | 314 72.9 59.4
9/3/26 - 2110 60.0 46.7 61 6.4 NNW | 339 7.5 NNW | 337 72.9 59.4
9/3/26 - 2100 59.8 47.6 64 5.9 NNW | 347 7.2 NNW | 346 72.9 59.4
9/3/26 - 2050 59.6 48.9 68 5.5 N | 3 6.4 NNE | 13 72.9 59.4
9/3/26 - 2040 60.2 47.7 63 5.4 NNE | 14 6.4 NNE | 17 72.9 59.6
9/3/26 - 2030 60.8 45.6 57 3.4 N | 351 4.2 N | 2 72.9 59.6
9/3/26 - 2020 61.2 44.3 54 3.5 NW | 305 4.5 WNW | 295 72.9 59.6
9/3/26 - 2010 61.7 44.0 52 3.6 NW | 316 4.5 NNW | 334 72.9 59.6
9/3/26 - 2000 61.9 43.6 51 3.7 NW | 319 5.3 NW | 315 72.9 59.6
9/3/26 - 1950 61.9 43.2 50 3.6 WNW | 298 4.7 W | 278 72.9 59.6
9/3/26 - 1940 62.3 42.9 49 2.8 WNW | 285 3.7 W | 278 72.9 59.6
9/3/26 - 1930 62.6 43.3 49 2.9 NW | 307 5.8 NW | 324 72.9 59.6
9/3/26 - 1920 62.3 42.7 48 3.0 W | 264 4.4 W | 270 72.9 59.6
9/3/26 - 1910 62.8 42.5 47 3.6 W | 259 5.5 W | 265 72.9 59.6
9/3/26 - 1900 63.0 43.9 50 4.4 W | 270 8.3 NW | 320 72.9 59.6
9/3/26 - 1850 62.3 47.0 57 5.8 WSW | 249 8.2 WSW | 244 72.9 59.6
9/3/26 - 1840 62.4 47.3 58 5.8 WSW | 246 9.5 WSW | 251 72.9 59.6
9/3/26 - 1830 62.0 49.2 63 7.0 WSW | 237 10.4 WSW | 237 72.9 59.6
9/3/26 - 1820 62.2 49.5 63 9.0 WSW | 241 13.4 SW | 232 72.9 59.6
9/3/26 - 1810 62.7 49.6 62 9.9 WSW | 240 14.2 WSW | 245 72.9 59.6
9/3/26 - 1800 63.0 49.6 62 11.9 WSW | 240 17.8 WSW | 244 72.9 59.6
9/3/26 - 1750 63.7 49.1 59 13.2 WSW | 238 18.6 WSW | 245 72.9 59.6
9/3/26 - 1740 64.5 48.2 55 12.9 SW | 236 18.3 SW | 224 72.9 59.6
9/3/26 - 1730 65.5 48.0 53 13.5 WSW | 237 20.1 SW | 220 72.9 59.6
9/3/26 - 1720 65.4 47.7 53 12.4 SW | 233 18.6 SW | 235 72.9 59.6
9/3/26 - 1710 65.5 47.3 52 14.0 SW | 235 20.6 SW | 228 72.9 59.6
9/3/26 - 1700 67.0 46.6 48 11.4 SW | 235 18.7 WSW | 246 72.9 59.6
9/3/26 - 1650 67.4 46.6 47 12.8 WSW | 237 19.0 WSW | 246 72.9 59.6
9/3/26 - 1640 67.4 45.5 45 13.4 SW | 233 20.5 WSW | 243 72.9 59.6
9/3/26 - 1630 68.6 45.5 43 13.1 WSW | 240 21.6 WSW | 244 72.9 59.6
9/3/26 - 1620 69.0 44.7 41 12.1 SW | 236 20.3 WSW | 250 72.9 59.6
9/3/26 - 1610 69.4 44.1 40 13.7 WSW | 237 20.1 SW | 232 72.9 59.6
9/3/26 - 1600 68.9 43.5 40 13.2 SW | 235 21.7 WSW | 247 72.9 59.6
9/3/26 - 1550 70.1 42.9 37 12.8 SW | 233 20.0 WSW | 245 72.9 59.6
9/3/26 - 1540 70.1 42.4 37 12.9 WSW | 238 21.3 WSW | 255 72.9 59.6
9/3/26 - 1530 69.4 41.7 37 11.0 SW | 232 19.6 WSW | 242 72.9 59.6
9/3/26 - 1520 70.3 40.7 34 11.6 WSW | 239 19.1 WSW | 256 72.9 59.6
9/3/26 - 1510 69.3 39.4 33 12.4 SW | 233 20.8 WSW | 251 72.9 59.6
9/3/26 - 1500 70.8 39.1 31 11.5 WSW | 240 19.9 W | 259 72.9 59.6
9/3/26 - 1450 69.5 38.0 32 11.1 SW | 224 19.6 SSW | 205 72.5 59.6
9/3/26 - 1440 70.2 38.8 32 12.2 WSW | 240 20.2 W | 260 72.5 59.6
9/3/26 - 1430 70.2 38.7 32 9.3 SW | 233 17.5 WSW | 258 72.5 59.6
9/3/26 - 1420 70.4 38.0 31 10.0 SW | 232 18.7 SW | 234 72.5 59.6
9/3/26 - 1410 70.7 37.6 30 9.1 SW | 236 15.9 SW | 234 72.5 59.6
9/3/26 - 1400 70.3 36.9 29 8.2 SW | 220 16.4 SW | 232 72.5 59.6
9/3/26 - 1350 68.8 37.2 31 10.3 WSW | 237 16.9 W | 262 71.5 59.6
9/3/26 - 1340 69.9 38.1 31 9.9 SW | 234 19.6 WSW | 237 71.5 59.6
9/3/26 - 1330 69.4 39.2 33 10.1 WSW | 239 19.8 W | 268 71.0 59.6
9/3/26 - 1320 69.0 39.5 34 9.9 WSW | 243 17.1 W | 262 71.0 59.6
9/3/26 - 1310 68.1 38.3 33 11.2 WSW | 250 19.6 WSW | 254 71.0 59.6
9/3/26 - 1300 69.0 36.8 31 9.8 SW | 230 19.4 SW | 226 71.0 59.6
9/3/26 - 1250 68.5 36.0 30 9.3 SW | 226 17.2 WSW | 241 70.6 59.6
9/3/26 - 1240 69.2 35.1 28 10.7 WSW | 246 17.3 WSW | 239 70.6 59.6
9/3/26 - 1230 68.2 34.6 29 8.7 SW | 227 15.4 WSW | 251 70.6 59.6
9/3/26 - 1220 68.2 34.0 28 10.4 WSW | 237 17.8 SW | 222 70.2 59.6
9/3/26 - 1210 67.7 33.4 28 9.2 SW | 230 16.6 SW | 216 70.1 59.6
9/3/26 - 1200 67.8 33.6 28 11.0 WSW | 240 20.4 WSW | 244 70.1 59.6
9/3/26 - 1150 68.4 34.3 28 6.9 SW | 229 16.7 WSW | 244 70.1 59.6
9/3/26 - 1140 66.6 34.5 30 9.5 WSW | 256 14.8 WSW | 244 68.1 59.6
9/3/26 - 1130 65.5 36.8 35 9.8 WSW | 258 17.0 WSW | 254 66.6 59.6
9/3/26 - 1120 65.4 36.3 34 9.3 W | 264 16.8 W | 260 66.6 59.6
9/3/26 - 1110 65.0 33.9 31 8.9 WSW | 256 15.1 W | 261 66.6 59.6
9/3/26 - 1100 65.6 34.2 31 7.9 W | 270 12.4 WNW | 286 66.6 59.6
9/3/26 - 1050 65.0 32.2 29 7.8 WSW | 241 14.0 WSW | 243 66.6 59.6
9/3/26 - 1040 65.4 32.1 29 6.3 WSW | 240 10.5 WSW | 257 66.6 59.6
9/3/26 - 1030 65.0 29.6 26 4.7 SW | 214 10.3 SSW | 194 66.4 59.6
9/3/26 - 1020 64.2 27.6 25 6.2 SW | 224 11.1 WSW | 245 65.3 59.6
9/3/26 - 1010 64.1 27.5 25 6.1 SW | 236 10.2 W | 263 64.9 59.6
9/3/26 - 1000 63.8 25.9 24 5.6 SW | 234 9.6 WSW | 244 64.8 59.6
9/3/26 - 0950 63.2 24.4 23 5.0 SW | 218 7.5 SW | 229 63.9 59.6
9/3/26 - 0940 62.5 23.6 22 5.2 SW | 220 7.7 SW | 214 63.5 59.6
9/3/26 - 0930 62.1 24.1 23 3.0 SW | 215 4.9 WSW | 258 63.5 59.6
9/3/26 - 0920 61.4 23.3 23 3.8 SW | 218 6.6 SW | 224 63.5 59.6
9/3/26 - 0910 61.2 21.4 21 4.0 SSW | 211 5.4 SW | 226 63.5 59.6
9/3/26 - 0900 61.2 20.8 21 3.0 SSW | 208 4.3 SW | 227 63.5 59.6
9/3/26 - 0850 60.4 19.1 20 3.5 SW | 218 5.0 SW | 219 63.5 59.6
9/3/26 - 0840 60.3 17.5 19 3.6 SW | 216 5.3 SW | 216 63.5 59.6
9/3/26 - 0830 60.6 11.2 14 4.0 SSW | 210 5.0 SSW | 204 63.5 59.6
9/3/26 - 0820 60.5 9.8 13 4.4 SSW | 203 5.3 SSW | 201 63.5 59.6
9/3/26 - 0810 61.0 6.9 11 4.0 SSW | 196 4.8 SSW | 196 63.5 59.6
9/3/26 - 0800 61.6 5.8 11 3.4 SSW | 198 4.6 SSW | 210 63.5 59.6
9/3/26 - 0750 61.6 8.7 12 4.0 SSW | 202 4.8 SSW | 202 63.5 59.6
9/3/26 - 0740 61.2 9.6 13 4.2 SSW | 212 4.8 SSW | 211 63.5 59.6
9/3/26 - 0730 61.5 9.9 13 4.4 SW | 227 4.7 SW | 228 63.5 59.6
9/3/26 - 0720 61.7 6.8 11 4.1 SW | 226 4.4 SW | 225 63.5 59.6
9/3/26 - 0710 62.0 5.7 10 3.5 SW | 232 4.5 SW | 228 63.5 59.6
9/3/26 - 0700 62.2 2.5 9 3.3 WSW | 242 3.9 SW | 229 63.5 59.6
9/3/26 - 0650 62.2 7.9 12 3.7 SW | 236 4.8 WSW | 237 63.5 59.6
9/3/26 - 0640 62.4 14.6 15 3.7 W | 263 4.5 W | 272 63.5 59.6
9/3/26 - 0630 62.5 16.5 17 4.8 W | 274 5.3 W | 273 63.5 59.6
9/3/26 - 0620 62.6 18.1 18 5.4 W | 279 5.9 W | 280 63.5 59.6
9/3/26 - 0610 62.6 21.1 20 5.7 WNW | 286 6.5 WNW | 288 63.5 59.6
9/3/26 - 0600 62.8 23.3 22 5.7 WNW | 288 6.6 WNW | 295 63.5 59.6
9/3/26 - 0550 63.0 24.2 23 6.3 WNW | 289 7.7 WNW | 287 63.5 59.6
9/3/26 - 0540 63.0 26.9 25 5.2 NW | 308 7.0 WNW | 301 63.5 59.6
9/3/26 - 0530 63.0 27.6 26 4.7 NW | 306 5.9 NW | 305 63.5 59.6
9/3/26 - 0520 63.1 27.0 25 4.8 NW | 308 6.7 NW | 312 63.5 59.6
9/3/26 - 0510 63.2 23.7 22 5.5 NNW | 330 7.6 NNW | 340 63.5 59.6
9/3/26 - 0500 63.2 27.4 26 6.0 NNW | 330 7.2 NW | 319 63.5 59.6
9/3/26 - 0450 63.4 18.4 18 6.0 NW | 325 7.5 NW | 317 63.5 59.6
9/3/26 - 0440 63.4 9.3 12 5.7 NNW | 335 6.9 NNW | 333 63.5 59.6
9/3/26 - 0430 63.2 -1.0 7 5.0 NNW | 340 5.6 NNW | 340 63.3 59.6
9/3/26 - 0420 63.0 2.6 9 4.6 NNW | 342 5.3 NNW | 335 63.2 59.6
9/3/26 - 0410 63.0 1.2 8 4.1 NW | 321 4.7 NW | 320 63.2 59.6
9/3/26 - 0400 62.2 5.8 10 2.3 WNW | 301 3.4 NW | 308 62.7 59.6
9/3/26 - 0350 62.0 10.3 13 2.4 WNW | 299 3.1 NW | 312 62.2 59.6
9/3/26 - 0340 62.1 10.3 13 2.8 WNW | 301 3.3 NW | 309 62.2 59.6
9/3/26 - 0330 62.0 9.5 12 2.2 W | 263 3.5 W | 264 62.2 59.6
9/3/26 - 0320 61.9 12.0 14 1.8 WNW | 289 2.4 WNW | 287 62.0 59.6
9/3/26 - 0310 61.8 11.2 13 1.4 WNW | 290 2.3 NW | 304 62.0 59.6
9/3/26 - 0300 61.4 16.0 17 1.4 NNW | 336 2.0 N | 3 61.8 59.6
9/3/26 - 0250 60.8 25.2 26 1.5 N | 358 2.0 NNW | 343 61.3 59.6
9/3/26 - 0240 60.4 34.4 37 1.7 NNW | 331 2.1 NW | 320 61.3 59.6
9/3/26 - 0230 60.3 37.0 42 2.1 NW | 304 2.8 WNW | 299 61.3 59.6
9/3/26 - 0220 60.7 35.6 39 2.0 NW | 325 2.7 NW | 305 61.3 59.6
9/3/26 - 0210 61.1 28.3 29 2.2 WNW | 290 3.4 W | 265 61.3 59.6
9/3/26 - 0200 60.4 34.8 38 2.2 W | 280 3.1 W | 270 60.7 59.6
9/3/26 - 0150 59.8 39.8 48 1.9 W | 276 2.5 W | 276 60.5 59.6
9/3/26 - 0140 60.0 40.8 49 2.7 WNW | 285 3.3 W | 280 60.5 59.8
9/3/26 - 0130 60.1 38.6 45 2.6 WNW | 296 3.4 WNW | 288 60.4 60.0
9/3/26 - 0120 60.3 33.6 37 3.3 WNW | 288 3.8 WNW | 287 60.4 60.2
9/3/26 - 0110 60.3 33.6 37 3.8 WNW | 282 4.2 WNW | 286 60.4 60.2
9/3/26 - 0100 60.3 34.0 37 3.3 W | 281 4.2 W | 277 74.4 59.2
9/3/26 - 0050 60.3 36.6 41 3.6 W | 265 4.0 W | 268 74.4 59.2
9/3/26 - 0040 60.3 39.3 46 2.8 W | 274 3.5 W | 262 74.4 59.2
9/3/26 - 0030 60.2 35.4 39 2.4 WNW | 290 3.0 WNW | 299 74.4 59.2
9/3/26 - 0020 60.0 37.2 43 0.3 W | 270 1.2 W | 268 74.4 59.2
9/3/26 - 0010 60.4 33.3 36 1.8 WNW | 302 2.8 WNW | 300 74.4 59.2
9/3/26 - 0000 60.4 31.1 33 3.4 WNW | 298 4.3 WNW | 298 74.4 59.2
Max 70.8 49.6 68 14.0 - 21.7 - 74.4 60.2
Avg 63.5 32.9 35 6.3 - 9.5 - - -
Min 59.6 -1.0 7 0.3 - 1.2 - 60.4 59.2